DW2921 Weather Reports


Display with metric or nautical units.
time (UTC)temp
F
wind
direction
speed
MPH
gust
MPH
rain 1hr
in
rain 24hr
in
rain mn
in
humidity
%
barometer
mb
20260503183059 66 216 3.0 10.0 0.00 0.00 0.00 41 1013.0
20260503182058 65 199 3.0 12.0 0.00 0.00 0.00 41 1013.0
20260503181059 65 215 6.0 12.0 0.00 0.00 0.00 41 1013.0
20260503180100 65 158 2.0 7.0 0.00 0.00 0.00 41 1013.0
20260503175058 64 303 3.0 7.0 0.00 0.00 0.00 41 1013.0
20260503173059 63 297 3.0 10.0 0.00 0.00 0.00 41 1013.0
20260503172058 63 176 1.0 7.0 0.00 0.00 0.00 41 1013.0
20260503171058 62 204 3.0 10.0 0.00 0.00 0.00 41 1013.0
20260503131059 50 60 1.0 3.0 0.00 0.00 0.00 41 1013.0
20260503072100 49 334 0.0 0.0 0.00 0.00 0.00 41 1013.0
20260503071059 49 334 0.0 0.0 0.00 0.00 0.00 41 1013.0
20260503055100 52 334 0.0 0.0 0.00 0.00 0.00 41 1013.0
20260503054059 53 334 0.0 0.0 0.00 0.00 0.00 41 1013.0
20260503052100 53 334 0.0 0.0 0.00 0.00 0.00 41 1013.0
20260503051059 54 334 0.0 0.0 0.00 0.00 0.00 41 1013.0
20260503050101 54 334 0.0 0.0 0.00 0.00 0.00 41 1013.0
20260503045059 54 335 0.0 0.0 0.00 0.00 0.00 41 1013.0
20260503044059 54 334 0.0 0.0 0.00 0.00 0.00 41 1013.0
20260503043059 55 334 0.0 0.0 0.00 0.00 0.00 41 1013.0
20260503042059 55 334 0.0 2.0 0.00 0.00 0.00 41 1013.0
20260503035059 55 335 1.0 6.0 0.00 0.00 0.00 41 1013.0
20260503033059 55 333 1.0 3.0 0.00 0.00 0.00 41 1013.0
20260503032100 55 334 1.0 3.0 0.00 0.00 0.00 41 1013.0
20260503031059 55 333 0.0 3.0 0.00 0.00 0.00 41 1013.0
20260503024059 56 336 0.0 1.0 0.00 0.00 0.00 41 1013.0
20260503023100 56 336 0.0 2.0 0.00 0.00 0.00 41 1013.0
20260503020101 56 336 0.0 2.0 0.00 0.00 0.00 41 1013.0
20260503015100 56 336 0.0 2.0 0.00 0.00 0.00 41 1013.0
20260503014100 56 336 0.0 2.0 0.00 0.00 0.00 41 1013.0
20260503013100 57 336 1.0 3.0 0.00 0.00 0.00 41 1013.0
20260503012100 57 336 2.0 3.0 0.00 0.00 0.00 41 1013.0
20260503011059 57 336 1.0 3.0 0.00 0.00 0.00 41 1013.0
20260503004100 59 343 1.0 3.0 0.00 0.00 0.00 41 1013.0
20260503003059 60 344 1.0 5.0 0.00 0.00 0.00 41 1013.0
20260503002059 60 339 2.0 6.0 0.00 0.00 0.00 41 1013.0
20260503001100 61 348 1.0 5.0 0.00 0.00 0.00 41 1013.0
20260502235059 61 340 1.0 7.0 0.00 0.00 0.00 41 1013.0
20260502234100 62 357 2.0 5.0 0.00 0.00 0.00 41 1013.0
20260502233059 62 347 2.0 12.0 0.00 0.00 0.00 41 1013.0
20260502232059 63 313 4.0 9.0 0.00 0.00 0.00 41 1013.0
20260502231100 64 27 3.0 16.0 0.00 0.00 0.00 41 1013.0
20260502225100 65 336 2.0 7.0 0.00 0.00 0.00 41 1013.0
20260502224100 65 12 2.0 7.0 0.00 0.00 0.00 41 1013.0
20260502223100 65 2 2.0 9.0 0.00 0.00 0.00 41 1013.0
20260502222059 65 355 4.0 9.0 0.00 0.00 0.00 41 1013.0
20260502221059 65 339 5.0 12.0 0.00 0.00 0.00 41 1013.0
20260502215100 65 9 4.0 12.0 0.00 0.00 0.00 41 1013.0
20260502214059 66 245 3.0 9.0 0.00 0.00 0.00 41 1013.0
20260502211059 66 354 5.0 12.0 0.00 0.00 0.00 41 1013.0
20260502210101 67 354 3.0 9.0 0.00 0.00 0.00 41 1013.0
20260502205100 67 294 2.0 6.0 0.00 0.00 0.00 41 1013.0
20260502204059 68 336 4.0 12.0 0.00 0.00 0.00 41 1013.0
20260502203059 68 21 2.0 12.0 0.00 0.00 0.00 41 1013.0
20260502202100 67 343 4.0 10.0 0.00 0.00 0.00 41 1013.0
20260502201100 67 268 3.0 10.0 0.00 0.00 0.00 41 1013.0
20260502194100 69 323 6.0 15.0 0.00 0.00 0.00 41 1013.0
20260502193059 70 38 4.0 12.0 0.00 0.00 0.00 41 1013.0
20260502192059 71 359 4.0 10.0 0.00 0.00 0.00 41 1013.0
20260502191100 70 27 2.0 8.0 0.00 0.00 0.00 41 1013.0
20260502190101 70 35 2.0 7.0 0.00 0.00 0.00 41 1013.0